STARLINK-36726, 67925

Orbit data source: Space-Track

STARLINK-36726, 67925 is a payload satellite owned by SpaceX/Seattle (US) in LEO that was launched on Sun, 22 Feb 2026 UTC via an FALCON 9 launch vehicle from the Air Force Eastern Test Range (AFETR). Payload-class satellites include a variety of spacecraft equipped with specific instruments for various scientific and technological missions. These include communications satellites like Starlink; space stations such as the ISS; scientific satellites like the Hubble; Earth observation satellites from companies like Planet Labs, Umbra, and HawkEye 360; GPS; miniature CubeSats for education and research; and military/defense satellites.

Loading next visibility...
Identifier
67925, 2026-036X
Orbit
LEO
Country
Flag of USUS
Related business
Manufacturer
SpaceX/Seattle
Mission
Operational Commercial Communications
Bus & Motor
STARLINK V2MO, Unknown motor
Mass
575 kg wet, ~530 kg dry
Launch date (UTC)
2026-02-22 (4 months ago)
Launch vehicle
FALCON 9
Launch site
Air Force Eastern Test Range (AFETR)
Object type
Payload
Rocket body
Debris
Shape & HBR
Box + 2 Pan, 17.7 m
Radar Cross Section
36.964 m², Large (>1 m²)

Expand to show TLE details & history
Last TLE update: 2 days ago

TLE from 2 days ago
0 STARLINK-36726
1 67925U 26036X   26170.31392634  .00015236  00000-0  56197-3 0  9991
2 67925  43.0027  31.4003 0001360 266.8560  93.2136 15.27583651 19266
Epoch: 2026-06-19T07:32Z
TLE epoch observation values (Epoch: 2026-06-19T07:32:03.235Z)
Latitude
-0.00004°
Longitude
10.8421°
Altitude
482.866 km
Speed
7.626 km/s
True Right ascension
02h 05m 36s
True Declination
0° 00' 00"
Sunlit
Object was in daylight at epoch
Visualization orbit readout
Latitude
Unknown
Longitude
Unknown
Altitude
Unknown
Speed
Unknown
Apparent Right ascension
Unknown
Apparent Declination
Unknown
Sunlit
N/A
Visualization observer readout
Local Sidereal Time
07:20:13
Azimuth
Unknown
Elevation
Unknown
Doppler factor
Unknown
Orbital elements
Apogee altitude
485.916 km
Perigee altitude
484.05 km
Semi-major axis
6,863.12 km
Eccentricity
0.00014
Inclination
43.0027°
RAAN
31.4003°
Arg. of periapsis
266.856°
True anomaly
93.22916°
Mean anomaly
93.2136°
Eccentric anomaly
93.22138°
Mean motion
3.81734 °/min
Orbital period
94.31 mins
BSTAR
0.00056197
Loading maneuver chart data...
Computing Atmospheric mass density...
Loading historical data...
Loading historical data...
Loading historical data...
Loading historical data...
Loading historical data...
Loading historical data...
Loading historical data...

Documentation

Showing up to 5 results
|